Weather History for KNBT - November, 2011

Change the Weather History Date:

Tuesday, November 22, 2011

  Actual Average (KMRH) Record (KMRH)
Temperature  
Mean Temperature 68 °F -  
Max Temperature 75 °F 63 °F - (-1)
Min Temperature 60 °F 41 °F - (-1)
Cooling Degree Days 2    
Growing Degree Days 18 (Base 50)    
Moisture  
Dew Point 60 °F    
Average Humidity 83    
Maximum Humidity 94    
Minimum Humidity 64    
Precipitation  
Precipitation 0.00 in - - ()
Sea Level Pressure  
Sea Level Pressure 30.17 in    
Wind  
Wind Speed 6 mph (ESE)    
Max Wind Speed 12 mph    
Max Gust Speed -    
Visibility 6 miles    
Events      
Averages and records for this station are not official NWS values.
T = Trace of Precipitation, MM = Missing Value Source: NWS Daily Summary

Daily Weather History Graph

Daily Weather History Graph

Search for Another Location

Airport or City:

Trip Planner

Search our weather history database for the weather conditions in past years. The results will help you decide how hot, cold, wet, or windy it might be!

Date:

Astronomy

Nov. 22, 2011 Rise Set
Actual Time 6:46 AM EST 4:56 PM EST
Civil Twilight 6:19 AM EST 5:23 PM EST
Nautical Twilight 5:48 AM EST 5:54 PM EST
Astronomical Twilight 5:18 AM EST 6:25 PM EST
Moon 3:39 AM EST (11/22) 2:50 PM EST (11/22)
Length of Visible Light 11h 04m
Length of Day
10h 09m
Waning Crescent, 9% of the Moon is Illuminated
Nov 22
Waning Crescent
Nov 25
New
Dec 2
First Quarter
Dec 10
Full
Dec 17
Last Quarter

Hourly Weather History & Observations

Time (EST) Temp. Dew Point Humidity Pressure Visibility Wind Dir Wind Speed Gust Speed Precip Events Conditions
1:56 AM 61.0 °F 57.9 °F 90% 30.20 in 6.0 mi ENE 5.8 mph - N/A   Clear
2:56 AM 61.0 °F 57.0 °F 87% 30.20 in 4.0 mi ENE 5.8 mph - N/A   Clear
3:56 AM 60.1 °F 57.9 °F 93% 30.19 in 3.0 mi Calm Calm - N/A   Mostly Cloudy
5:41 AM 60.8 °F 57.2 °F 88% 30.19 in 2.5 mi NE 5.8 mph - N/A   Clear
5:56 AM 61.0 °F 57.9 °F 90% 30.21 in 3.0 mi ENE 4.6 mph - N/A   Clear
6:52 AM 60.8 °F 57.2 °F 88% 30.20 in 2.5 mi ENE 5.8 mph - N/A   Clear
6:56 AM 61.0 °F 57.9 °F 90% 30.22 in 2.0 mi ENE 4.6 mph - N/A   Clear
8:04 AM 62.6 °F 59.0 °F 88% 30.23 in 2.5 mi ENE 3.5 mph - N/A   Clear
8:15 AM 62.6 °F 60.8 °F 94% 30.23 in 3.0 mi ENE 4.6 mph - N/A   Clear
8:56 AM 64.0 °F 60.1 °F 87% 30.25 in 4.0 mi ENE 5.8 mph - N/A   Clear
9:56 AM 68.0 °F 61.0 °F 78% 30.24 in 9.0 mi East 8.1 mph - N/A   Partly Cloudy
10:56 AM 72.0 °F 61.0 °F 68% 30.22 in 10.0 mi ESE 6.9 mph - N/A   Scattered Clouds
11:56 AM 73.9 °F 61.0 °F 64% 30.19 in 10.0 mi SE 10.4 mph - N/A   Clear
12:56 PM 75.0 °F 62.1 °F 64% 30.16 in 10.0 mi SE 9.2 mph - N/A   Clear
1:56 PM 75.0 °F 63.0 °F 66% 30.14 in 10.0 mi SSE 11.5 mph - N/A   Clear
3:56 PM 73.0 °F 64.0 °F 73% 30.13 in 10.0 mi South 6.9 mph - N/A   Clear
4:56 PM 70.0 °F 63.0 °F 78% 30.12 in 9.0 mi SSE 5.8 mph - N/A   Clear
5:56 PM 66.9 °F 62.1 °F 84% 30.12 in 8.0 mi SSE 4.6 mph - N/A   Clear
7:56 PM 66.0 °F 62.1 °F 87% 30.11 in 6.0 mi South 4.6 mph - N/A   Clear
8:56 PM 64.9 °F 62.1 °F 90% 30.11 in 5.0 mi South 4.6 mph - N/A   Scattered Clouds
9:56 PM 64.9 °F 61.0 °F 87% 30.09 in 7.0 mi South 4.6 mph - N/A   Clear
10:56 PM 66.0 °F 62.1 °F 87% 30.06 in 7.0 mi South 5.8 mph - N/A   Clear